GW1838 Weather Reports


time (UTC)temp
C
wind
direction
speed
KPH
gust
KPH
rain 1hr
cm
rain 24hr
cm
rain mn
cm
humidity
%
barometer
mb
20260503054304 11 356 9.7 19.3 0.00 0.00 0.00 61 1009.1
20260503052306 11 338 8.0 19.3 0.00 0.00 0.00 62 1009.3
20260503051804 11 313 9.7 20.9 0.00 0.00 0.00 60 1009.3
20260503050804 11 324 11.3 20.9 0.00 0.00 0.00 59 1009.3
20260503045804 11 312 8.0 16.1 0.00 0.00 0.00 60 1009.3
20260503045305 11 330 9.7 19.3 0.00 0.00 0.00 60 1009.5
20260503044805 11 295 9.7 20.9 0.00 0.00 0.00 61 1009.5
20260503044304 11 341 9.7 20.9 0.00 0.00 0.00 59 1009.5
20260503043804 11 338 11.3 22.5 0.00 0.00 0.00 61 1009.4
20260503042805 11 339 9.7 19.3 0.00 0.00 0.00 61 1009.7
20260503041805 11 313 8.0 19.3 0.00 0.00 0.00 61 1009.7
20260503041305 11 312 8.0 20.9 0.00 0.00 0.00 62 1009.8
20260503035804 11 298 8.0 14.5 0.00 0.00 0.00 65 1009.8
20260503033305 11 309 4.8 11.3 0.00 0.00 0.00 74 1009.7
20260503032304 10 288 4.8 11.3 0.00 0.00 0.00 81 1009.7
20260503031804 10 283 4.8 9.7 0.00 0.00 0.00 83 1009.8
20260503031304 10 268 6.4 11.3 0.00 0.00 0.00 84 1009.8
20260503030804 10 267 6.4 11.3 0.00 0.00 0.00 86 1010.0
20260503025305 10 258 8.0 11.3 0.00 0.00 0.00 86 1010.0
20260503024304 10 259 11.3 16.1 0.00 0.00 0.00 86 1010.1
20260503023304 10 257 6.4 11.3 0.00 0.00 0.00 85 1009.8
20260503022804 11 269 4.8 9.7 0.00 0.00 0.00 85 1009.8
20260503022305 11 250 8.0 11.3 0.00 0.00 0.00 84 1009.9
20260503021305 11 267 4.8 9.7 0.00 0.00 0.00 84 1009.9
20260503012805 10 202 3.2 4.8 0.00 0.00 0.00 86 1010.2
20260503012305 10 201 4.8 8.0 0.00 0.00 0.00 86 1010.3
20260503011805 10 184 3.2 4.8 0.00 0.00 0.00 86 1010.4
20260503011304 10 184 3.2 4.8 0.00 0.00 0.00 86 1010.3
20260503010804 10 184 3.2 8.0 0.00 0.00 0.00 86 1010.2
20260503004804 10 184 3.2 8.0 0.00 0.00 0.00 87 1009.8
20260503004305 10 184 3.2 4.8 0.00 0.00 0.00 86 1009.8
20260503003805 10 184 1.6 4.8 0.00 0.00 0.00 86 1009.8
20260503003304 10 184 0.0 1.6 0.00 0.00 0.00 86 1009.8
20260503002805 10 184 1.6 4.8 0.00 0.00 0.00 86 1009.8
20260503000304 11 184 3.2 4.8 0.00 0.00 0.00 86 1009.7
20260502234304 11 188 3.2 4.8 0.00 0.00 0.00 85 1009.7
20260502233304 11 173 4.8 8.0 0.00 0.00 0.00 84 1009.8
20260502231804 11 167 3.2 4.8 0.00 0.00 0.00 84 1009.8
20260502225804 11 170 4.8 8.0 0.00 0.00 0.00 84 1009.7
20260502224805 11 149 3.2 8.0 0.00 0.00 0.00 83 1009.6
20260502223804 11 158 4.8 8.0 0.00 0.00 0.00 83 1009.7
20260502222804 11 153 4.8 9.7 0.00 0.00 0.00 82 1009.6
20260502221804 11 113 1.6 4.8 0.00 0.00 0.00 82 1009.5
20260502221304 11 142 4.8 8.0 0.00 0.00 0.00 81 1009.7
20260502220803 12 114 3.2 4.8 0.00 0.00 0.00 81 1009.7
20260502214805 12 112 1.6 4.8 0.00 0.00 0.00 80 1009.6
20260502213804 12 111 1.6 4.8 0.00 0.00 0.00 80 1009.5
20260502213303 12 109 0.0 3.2 0.00 0.00 0.00 80 1009.6
20260502211306 12 136 1.6 4.8 0.00 0.00 0.00 81 1009.4
20260502210806 12 142 3.2 4.8 0.00 0.00 0.00 80 1009.3
20260502210306 12 152 3.2 4.8 0.00 0.00 0.00 80 1009.1
20260502205307 12 121 3.2 4.8 0.00 0.00 0.00 80 1009.3
20260502204807 12 135 1.6 4.8 0.00 0.00 0.00 80 1009.1
20260502204306 12 151 4.8 8.0 0.00 0.00 0.00 79 1009.1
20260502203806 12 156 3.2 4.8 0.00 0.00 0.00 79 1009.2
20260502203306 12 119 3.2 4.8 0.00 0.00 0.00 79 1009.2
20260502202806 12 114 1.6 4.8 0.00 0.00 0.00 79 1009.2
20260502202306 12 168 4.8 9.7 0.00 0.00 0.00 78 1009.2
20260502201806 12 157 4.8 8.0 0.00 0.00 0.00 78 1009.4
20260502200806 12 144 3.2 4.8 0.00 0.00 0.00 78 1009.4
20260502200306 12 114 3.2 8.0 0.00 0.00 0.00 78 1009.5
20260502193806 13 141 3.2 8.0 0.00 0.00 0.00 74 1009.6
20260502193306 13 174 1.6 4.8 0.00 0.00 0.00 75 1009.7
20260502191305 13 142 1.6 4.8 0.00 0.00 0.00 77 1010.0
20260502184807 12 147 6.4 9.7 0.00 0.00 0.00 79 1010.4
20260502183306 13 161 3.2 4.8 0.00 0.00 0.00 77 1010.5
20260502181806 13 137 3.2 4.8 0.00 0.00 0.00 77 1010.5
20260502170306 11 166 1.6 4.8 0.00 0.00 0.00 81 1010.7
20260502164305 11 166 3.2 4.8 0.00 0.00 0.00 82 1011.0
20260502163806 11 166 3.2 4.8 0.00 0.00 0.00 82 1011.1
20260502163306 11 166 3.2 4.8 0.00 0.00 0.00 82 1011.2
20260502162806 11 166 3.2 4.8 0.00 0.00 0.00 81 1011.2
20260502161806 11 166 1.6 4.8 0.00 0.00 0.00 81 1011.5
20260502160306 12 166 3.2 4.8 0.00 0.00 0.00 81 1011.4
20260502152305 11 167 1.6 4.8 0.00 0.00 0.00 84 1011.2
20260502151806 11 166 3.2 4.8 0.00 0.00 0.00 85 1011.1
20260502151306 11 161 3.2 4.8 0.00 0.00 0.00 85 1011.1
20260502150806 11 154 3.2 4.8 0.00 0.00 0.00 85 1011.2
20260502150306 11 158 3.2 4.8 0.00 0.00 0.00 85 1011.2
20260502130306 12 336 6.4 11.3 0.00 0.00 0.00 77 1011.6
20260502123305 11 297 3.2 4.8 0.00 0.00 0.00 81 1011.7
20260502121805 11 266 4.8 11.3 0.00 0.00 0.00 82 1011.4
20260502121307 11 259 4.8 11.3 0.00 0.00 0.00 83 1011.4
20260502120806 11 278 8.0 16.1 0.00 0.00 0.00 83 1011.5
20260502120306 11 270 6.4 11.3 0.00 0.00 0.00 83 1011.5
20260502115806 11 260 6.4 12.9 0.00 0.00 0.00 84 1011.5
20260502115306 10 255 8.0 11.3 0.00 0.00 0.00 84 1011.5
20260502113305 10 253 8.0 14.5 0.00 0.00 0.00 84 1011.5
20260502112805 11 252 8.0 11.3 0.00 0.00 0.00 84 1011.6
20260502112306 11 254 8.0 14.5 0.00 0.00 0.00 84 1011.5
20260502110805 11 249 8.0 12.9 0.00 0.00 0.00 83 1011.4
20260502110306 11 243 8.0 16.1 0.00 0.00 0.00 84 1011.4
20260502105306 11 246 6.4 14.5 0.00 0.00 0.00 84 1011.2
20260502104806 10 221 4.8 8.0 0.00 0.00 0.00 84 1011.1
20260502104305 10 221 4.8 9.7 0.00 0.00 0.00 85 1011.0
20260502103306 10 250 8.0 9.7 0.00 0.00 0.00 85 1011.0
20260502102805 10 230 4.8 11.3 0.00 0.00 0.00 85 1010.9
20260502102306 10 235 8.0 11.3 0.00 0.00 0.00 85 1011.0
20260502101306 10 247 8.0 11.3 0.00 0.00 0.00 85 1011.1
20260502100806 10 233 8.0 12.9 0.00 0.00 0.00 85 1011.1
20260502100306 10 243 4.8 9.7 0.00 0.00 0.00 86 1011.1
20260502091306 11 254 12.9 19.3 0.00 0.00 0.00 84 1011.1
20260502090805 11 245 11.3 19.3 0.00 0.00 0.00 84 1011.0
20260502090306 11 244 11.3 19.3 0.00 0.00 0.00 85 1010.9
20260502070806 10 200 11.3 22.5 0.00 0.00 0.00 85 1011.2
20260502065805 10 208 14.5 29.0 0.00 0.00 0.00 85 1011.3
20260502064305 10 201 11.3 19.3 0.00 0.00 0.00 84 1011.2
20260502063806 10 209 8.0 19.3 0.00 0.00 0.00 84 1011.3
20260502062805 10 208 14.5 20.9 0.00 0.00 0.00 83 1011.4
20260502061806 10 208 11.3 20.9 0.00 0.00 0.00 83 1011.4
20260502061306 10 206 12.9 22.5 0.00 0.00 0.00 82 1011.5
20260502060805 10 203 11.3 24.1 0.00 0.00 0.00 81 1011.8
20260502055306 10 209 11.3 27.4 0.00 0.00 0.00 83 1012.0